Location: Gerterode
(51.3817°N, 10.4892°E)
Time: 20:25:37
(UTC+00:00)

Daily predictions for brighter satellites

Satellite Brightness Start Highest point End
(mag) Time Altitude Azimuth Time Altitude Azimuth Time Altitude Azimuth
STARLINK-1243 3.7 18:19:52 10° WSW 18:24:01 89° SSE 18:28:11 10° ENE
COSMO-SKYMED 1 4.4 18:20:52 10° N 18:24:55 38° WNW 18:28:55 10° SW
Cosmos 292 Rocket 3.8 18:22:00 10° NNW 18:26:48 67° ENE 18:31:36 10° SSE
ARGOS Delta rocket 4.2 18:22:40 10° SSE 18:27:56 82° ENE 18:33:25 10° N
STARLINK-1236 3.7 18:24:54 10° WSW 18:29:03 88° N 18:33:12 10° ENE
Cosmos 2251 Rocket 4.1 18:24:36 10° SSE 18:29:27 36° ESE 18:34:20 10° NE
NOSS 3-4 (A) 4.3 18:23:22 10° NW 18:29:53 49° NNE 18:37:03 10° ESE
NOSS 3-4 (C) 4.3 18:23:29 10° NW 18:29:59 49° NNE 18:37:09 10° ESE
ERBS 3.8 18:27:55 10° WNW 18:31:00 32° N 18:34:06 10° ENE
Cosmos 1455 Rocket 3.6 18:28:09 10° SSW 18:32:29 65° WNW 18:36:52 10° N
Cosmos 1953 3.0 18:28:55 10° SSE 18:32:29 32° E 18:36:04 10° NNE
MONITOR-E 3.9 18:30:45 10° SSE 18:33:19 52° ENE 18:35:56 10° N
Cosmos 2315 Rocket 4.0 18:29:33 10° S 18:35:51 74° E 18:42:15 10° NNE
Cosmos 1626 Rocket 3.7 18:33:17 10° NNW 18:37:42 80° W 18:42:03 10° S
Cosmos 2369 Rocket 2.2 18:32:23 10° NNW 18:38:08 80° ENE 18:43:48 10° SSE
STARLINK-1269 3.7 18:34:49 10° WSW 18:38:58 84° NNW 18:43:08 10° ENE
Resurs 01 Rocket 2.8 18:35:27 10° ESE 18:39:07 26° ENE 18:42:49 10° N
FREGAT/IRIS 2.2 18:36:37 10° SSE 18:39:19 75° ENE 18:42:03 10° N
Cosmos 1626 3.3 18:36:47 10° NNW 18:40:21 46° W 18:43:54 10° SSW
Aureole 3 4.1 18:36:15 10° SSE 18:40:41 53° E 18:46:22 10° NNE
NOSS 3-3 (A) 4.4 18:36:20 10° S 18:41:44 38° ESE 18:47:44 10° NE
NOSS 3-3 (C) 4.4 18:36:28 10° S 18:41:50 38° ESE 18:47:49 10° NE
STARLINK-1200 3.7 18:39:47 10° WSW 18:43:56 81° NNW 18:48:06 10° ENE
Cosmos 1943 Rocket 2.4 18:38:36 10° NNW 18:44:09 76° WSW 18:49:43 10° SSE
IRIDIUM 104 4.4 18:39:19 10° N 18:44:29 57° E 18:49:36 10° SSE
Cosmos 1437 3.2 18:41:41 10° N 18:44:32 36° ENE 18:47:22 10° SE
Cosmos 1709 Rocket 4.4 18:39:05 10° NNW 18:45:14 68° W 18:51:18 10° S
ADEOS Rocket 3.8 18:38:37 10° N 18:45:14 61° WNW 18:51:10 10° SW
SL-8 R/B 4.3 18:40:52 10° W 18:45:26 46° SSW 18:49:51 11° SE
CZ-2C R/B 4.4 18:42:59 10° NNE 18:47:21 35° E 18:51:37 10° SSE
Cosmos 1602 Rocket 3.7 18:43:00 10° NNW 18:47:29 82° W 18:51:54 10° S
STARLINK-1192 3.7 18:44:47 10° W 18:48:56 79° NNW 18:53:06 10° ENE
Cosmos 1470 2.9 18:49:03 10° SSW 18:52:56 77° W 18:56:52 10° N
Cosmos 2263 4.2 18:47:49 10° NNW 18:53:28 78° ENE 18:59:05 10° SE
IRIDIUM 114 4.3 18:48:26 10° N 18:53:40 68° E 18:58:51 10° SSE
STARLINK-1244 3.7 18:49:46 10° W 18:53:55 78° NNW 18:58:04 10° ENE
Cosmos 1908 4.5 18:52:33 10° SE 18:55:36 22° E 18:58:40 10° NE
Ariane Rocket 3.6 18:52:00 10° S 18:57:01 61° WSW 19:02:03 10° NNW
STARLINK-1138 3.8 18:54:46 10° W 18:58:55 76° N 19:03:04 10° ENE
Aureole 2 Rocket 3.1 18:55:34 10° NNW 18:59:02 56° WSW 19:02:24 10° S
Abrixas rocket 2.6 18:56:44 10° WSW 18:59:30 37° SSE 19:01:18 18° ESE
STARLINK-67 2.7 18:57:35 10° WNW 19:00:09 59° N 19:01:57 17° E
Cosmos 2074 Rocket 4.0 18:53:57 10° N 19:00:14 70° ENE 19:06:31 10° SSE
Cosmos 1726 Rocket 4.4 18:58:31 10° SSE 19:02:21 30° E 19:06:13 10° NNE
ATLAS 2AS CENTAUR R/B 3.0 18:54:53 10° NW 19:02:39 67° NE 19:08:47 15° ESE
IRIDIUM 103 4.3 18:57:36 10° N 19:02:52 80° E 19:08:05 10° S
STARLINK-1143 3.8 18:59:41 10° W 19:03:51 75° N 19:07:48 11° ENE
ISS -2.0 19:01:49 10° W 19:04:37 24° SSW 19:07:16 11° SSE
Cosmos 1943 3.5 18:59:37 10° S 19:04:55 43° ESE 19:10:16 10° NE
Cosmos 1825 Rocket 3.6 19:00:49 10° N 19:05:14 64° ENE 19:09:34 10° SSE
USA 234 3.9 19:00:14 10° ENE 19:05:55 31° SE 19:11:33 10° S
STARLINK-1241 3.8 19:04:44 10° W 19:08:53 73° N 19:12:39 12° ENE
SL-08 RB Rocket 3.8 19:04:44 10° SSE 19:09:17 85° W 19:13:55 10° NNW
Spot 2 Rocket 4.4 19:06:11 15° ESE 19:09:36 32° ENE 19:14:05 10° N
SPOT 3 Rocket 3.5 19:08:11 10° SSE 19:13:25 86° ENE 19:18:39 10° NNW
STARLINK-1239 3.8 19:09:44 10° W 19:13:52 72° N 19:17:26 14° ENE
SeaSat 1 4.0 19:11:34 10° NNE 19:16:10 40° NW 19:20:45 10° WSW
Cosmos 1758 Rocket 3.5 19:12:37 10° NNW 19:17:01 85° W 19:21:20 10° S
STARLINK-1240 3.8 19:14:43 10° W 19:18:52 71° N 19:22:12 15° ENE
SJ-6B 3.6 19:15:49 10° S 19:19:50 55° W 19:23:56 10° NNW
MOS 1 Rocket 3.8 19:16:48 10° NNE 19:21:58 50° E 19:27:14 10° S
STARLINK-1216 3.8 19:19:43 10° W 19:23:52 70° N 19:27:00 17° ENE
Cosmos 1953 Rocket 3.6 19:19:45 10° N 19:24:13 69° ENE 19:27:53 15° SSE
CZ-4C R/B 4.1 19:18:52 10° NW 19:24:13 29° N 19:30:25 10° ENE
SL-16 R/B 3.5 19:20:56 10° WSW 19:26:20 44° NW 19:31:45 10° NNE
STARLINK-1237 3.8 19:24:43 10° W 19:28:52 70° N 19:31:47 19° ENE
CZ-2C R/B 4.1 19:24:53 10° S 19:29:33 42° W 19:34:06 10° NNW
Cosmos 1818 3.8 19:24:52 10° SSW 19:30:01 45° ESE 19:35:11 10° NE
Terra 3.6 19:28:43 14° ENE 19:30:20 17° NE 19:33:17 10° NNE
Cosmos 1606 Rocket 3.5 19:25:57 10° S 19:30:20 67° E 19:34:48 10° NNE
Cosmos 921 Rocket 3.6 19:27:15 10° N 19:31:12 37° ENE 19:32:50 26° ESE
BREEZE M DEB (TANK) 4.1 19:24:59 10° SW 19:33:03 32° SSE 19:34:30 26° SE
STARLINK-1233 3.1 19:30:08 10° WNW 19:33:16 64° N 19:34:37 30° ENE
STARLINK-1212 3.1 19:30:36 10° WNW 19:33:43 64° N 19:35:02 31° ENE
STARLINK-1202 3.8 19:29:42 10° W 19:33:50 69° N 19:36:34 21° ENE
SL-24 R/B 3.9 19:29:24 10° NNE 19:33:52 87° ESE 19:37:48 10° SSW
CZ-2C R/B 2.6 19:28:55 10° NNE 19:34:02 57° E 19:39:07 10° S
Cosmos 614 Rocket 4.3 19:29:17 10° S 19:34:10 42° ESE 19:39:04 10° NE
STARLINK-1105 3.1 19:31:03 10° WNW 19:34:11 64° N 19:35:29 31° ENE
STARLINK-1206 3.1 19:31:32 10° WNW 19:34:38 64° N 19:35:53 32° ENE
STARLINK-1247 3.1 19:31:58 10° WNW 19:35:05 64° N 19:36:19 32° ENE
STARLINK-1203 3.8 19:31:02 10° W 19:35:10 69° N 19:37:45 22° E
Cosmos 407 Rocket 4.0 19:30:35 10° SSE 19:35:15 36° ESE 19:39:55 10° NE
STARLINK-1227 3.1 19:32:23 10° WNW 19:35:31 64° N 19:36:46 32° ENE
Cosmos 1656 Rocket 3.8 19:30:16 10° NNW 19:35:58 79° WSW 19:40:14 18° SSE
STARLINK-1218 3.1 19:32:53 10° WNW 19:36:00 64° N 19:37:11 33° ENE
Cosmos 2228 2.9 19:32:08 10° S 19:36:24 72° E 19:40:45 10° NNE
STARLINK-1226 3.1 19:33:18 10° WNW 19:36:26 65° N 19:37:37 33° ENE
STARLINK-1254 3.1 19:33:45 10° WNW 19:36:53 65° N 19:38:04 33° ENE
STARLINK-1215 3.1 19:34:14 10° WNW 19:37:21 65° N 19:38:30 34° ENE
STARLINK-1231 3.1 19:34:42 10° WNW 19:37:49 65° N 19:38:56 35° ENE
STARLINK-1232 3.1 19:35:36 10° WNW 19:38:43 65° N 19:39:48 36° ENE
SPOT 1/Viking Rocket 4.3 19:36:25 24° ESE 19:38:47 37° ENE 19:43:33 10° N
STARLINK-1217 3.1 19:36:02 10° WNW 19:39:10 65° N 19:40:14 36° ENE
STARLINK-1208 3.1 19:36:27 10° WNW 19:39:35 65° N 19:40:40 36° ENE
STARLINK-1229 3.1 19:36:55 10° WNW 19:40:02 65° N 19:41:04 37° ENE
STARLINK-1271 3.1 19:37:23 10° WNW 19:40:30 66° N 19:41:32 37° ENE
IGS 5A 4.3 19:39:45 28° E 19:40:56 33° ENE 19:44:43 10° N
STARLINK-1270 3.1 19:37:51 10° WNW 19:40:58 66° N 19:41:57 38° ENE
STARLINK-1154 3.1 19:38:17 10° WNW 19:41:24 66° N 19:42:23 38° ENE
Cosmos 1295 Rocket 4.5 19:35:20 10° N 19:41:37 70° ENE 19:46:25 18° SSE
SAR-Lupe-2 4.1 19:38:35 10° NNE 19:41:56 36° E 19:42:09 36° ESE
STARLINK-1197 3.1 19:39:11 10° WNW 19:42:18 66° N 19:43:15 39° ENE
STARLINK-1189 3.1 19:39:39 10° WNW 19:42:46 66° N 19:43:42 40° ENE
STARLINK-1198 3.0 19:40:06 10° WNW 19:43:13 66° N 19:44:07 40° ENE
STARLINK-1188 3.0 19:40:33 10° WNW 19:43:39 66° N 19:44:33 41° ENE
STARLINK-1246 3.8 19:39:39 10° W 19:43:47 69° N 19:46:06 25° ENE
STARLINK-1235 3.0 19:41:12 10° WNW 19:44:21 71° N 19:45:11 44° E
STARLINK-1187 3.0 19:41:31 10° WNW 19:44:40 69° N 19:45:33 43° ENE
Cosmos 2341 Rocket 4.2 19:38:26 10° N 19:44:44 57° ENE 19:48:37 24° SE
BREEZE-M DEB (TANK) 3.9 19:39:27 10° W 19:45:00 43° SSW 19:45:58 32° SSE
COSMOS 2455 3.1 19:39:06 10° NNW 19:45:04 58° NE 19:48:18 27° ESE
STARLINK-1199 3.0 19:42:29 10° WNW 19:45:37 67° N 19:46:28 43° ENE
SL-4 R/B 3.7 19:43:05 10° SSW 19:43:45 14° S 19:43:45 14° S
STARLINK-1191 3.0 19:42:57 10° WNW 19:46:05 67° N 19:46:54 43° ENE
STARLINK-1201 3.1 19:43:06 10° WNW 19:46:23 67° N 19:47:21 41° ENE
STARLINK-1210 3.0 19:43:23 10° WNW 19:46:32 67° N 19:47:20 44° ENE
STARLINK-1221 3.0 19:43:50 10° WNW 19:46:59 68° N 19:47:46 45° ENE
STARLINK-1219 3.0 19:44:17 10° WNW 19:47:27 68° N 19:48:12 45° ENE
STARLINK-1222 3.0 19:44:44 10° WNW 19:47:53 68° N 19:48:38 46° ENE
Cosmos 1980 Rocket 4.4 19:45:01 10° N 19:48:00 14° NNE 19:50:59 10° ENE
STARLINK-1211 3.0 19:45:12 10° WNW 19:48:20 68° N 19:49:04 46° ENE
Cosmos 1603 3.7 19:42:48 10° SSW 19:48:27 82° WNW 19:54:06 10° NNE
STARLINK-1214 3.0 19:45:39 10° WNW 19:48:48 68° N 19:49:31 47° ENE
STARLINK-1224 3.8 19:44:41 10° W 19:48:50 69° N 19:50:55 28° ENE
Cosmos 1726 3.0 19:45:12 10° SSW 19:48:51 51° WNW 19:52:32 10° N
STARLINK-1234 2.8 19:46:06 10° WNW 19:49:09 74° NNE 19:49:39 56° ENE
STARLINK-1228 2.6 19:46:15 10° WNW 19:49:10 74° NNE 19:49:30 63° ENE
Cosmos 1340 Rocket 3.0 19:47:46 33° SSE 19:49:12 49° E 19:53:07 10° NNE
STARLINK-1245 3.0 19:46:07 10° WNW 19:49:14 68° N 19:49:55 49° ENE
STARLINK-1238 3.0 19:46:32 10° WNW 19:49:41 68° N 19:50:23 48° ENE
ERS-1 Rocket 3.8 19:47:59 27° E 19:49:41 35° ENE 19:54:14 10° N
STARLINK-1205 3.0 19:47:29 10° WNW 19:50:37 69° N 19:51:14 50° ENE
STARLINK-1204 3.0 19:47:56 10° WNW 19:51:04 69° N 19:51:39 51° ENE
H-2A R/B 4.0 19:47:14 10° SSW 19:51:39 27° W 19:56:00 10° NW
Cosmos 1328 4.3 19:48:34 10° NNW 19:52:32 58° W 19:55:27 17° S
STARLINK-1225 3.8 19:49:38 10° W 19:53:47 69° N 19:55:40 31° ENE
Meteor 1-16 Rocket 4.4 19:49:38 10° SSW 19:55:01 72° WNW 20:00:36 10° N
Resurs 1-3 4.5 19:51:23 11° S 19:55:28 48° W 19:59:45 10° NNW
Cosmos 1892 4.3 19:53:58 10° NNE 19:56:50 22° ENE 19:56:50 22° ENE
STARLINK-1230 3.8 19:54:38 10° W 19:58:47 69° N 20:00:28 34° ENE
STARLINK-1209 2.6 19:56:28 10° WNW 19:59:26 81° NNE 19:59:26 81° NNE
STARLINK-1243 3.8 19:59:37 10° W 20:03:46 70° N 20:05:14 38° ENE
ATLAS CENTAUR R/B 3.7 20:01:25 10° NNW 20:03:53 15° NNE 20:06:08 10° NE
Cosmos 1703 4.4 20:00:12 10° NNW 20:03:57 42° W 20:06:52 15° SSW
Cosmos 2218 Rocket 4.2 19:59:27 10° N 20:05:29 51° ENE 20:07:52 34° SE
Cosmos 1461 3.0 20:02:05 10° NW 20:06:35 86° NE 20:07:55 46° SE
ERBS 3.4 20:04:44 10° NW 20:07:54 36° NNE 20:08:37 32° NE
DMSP B5D2-2 4.4 20:03:15 10° N 20:08:27 68° WNW 20:13:37 10° SSW
STARLINK-1236 3.7 20:04:39 10° W 20:08:48 70° N 20:10:04 42° ENE
Cosmos 1076 Rocket 4.1 20:06:58 10° N 20:11:00 39° ENE 20:11:09 39° ENE
Cosmos 1023 Rocket 4.5 20:11:23 32° S 20:13:35 56° ESE 20:18:37 10° NNE
Resurs 01 Rocket 2.6 20:12:28 18° SSW 20:15:26 43° W 20:19:40 10° NNW
ATLAS 5 CENTAUR R/B 4.0 20:20:51 11° ENE 20:20:51 11° ENE 20:21:08 10° NE
Cosmos 1825 4.4 20:15:42 10° NNE 20:17:15 15° NE 20:17:15 15° NE
In-Cosmos 22 Rocket 4.4 20:12:38 10° N 20:18:25 59° ENE 20:20:12 42° SE
STARLINK-1269 3.7 20:14:35 10° WNW 20:18:44 72° N 20:19:35 53° ENE
USA 245 4.3 20:18:18 33° S 20:20:54 84° WSW 20:27:12 10° NNW
NOSS 3-4 (A) 4.1 20:14:18 10° NW 20:21:08 63° SW 20:24:57 30° SSE
Cosmos 2181 Rocket 4.0 20:18:41 35° SSE 20:21:12 58° E 20:27:17 10° NNE
Cosmos 2058 Rocket 3.2 20:18:19 22° SSW 20:21:15 75° WNW 20:25:47 10° N
NOSS 3-4 (C) 4.1 20:14:24 10° NW 20:21:15 63° SW 20:25:02 31° SSE
Cosmos 2369 Rocket 4.4 20:17:26 10° NW 20:21:29 21° W 20:25:33 10° SSW
Cosmos 1300 2.8 20:23:46 60° NE 20:23:46 60° NE 20:27:08 10° NNE
STARLINK-1200 3.7 20:19:33 10° WNW 20:23:43 73° N 20:24:21 59° ENE
Landsat 7 3.7 20:24:18 49° SSE 20:25:36 90° WSW 20:30:24 10° NNW
Cosmos 1763 Rocket 4.1 20:22:58 10° NNW 20:27:56 40° NE 20:28:47 37° E
STARLINK-1192 3.6 20:24:33 10° WNW 20:28:42 75° N 20:29:09 66° ENE
SL-8 Rocket 3.9 20:23:58 10° N 20:30:20 85° E 20:32:55 39° SSE
NOSS 3-3 (C) 4.5 20:26:26 10° WSW 20:32:26 62° NW 20:39:20 10° NE
STARLINK-1244 3.6 20:29:32 10° WNW 20:33:42 76° NNE 20:33:56 73° NE
Cosmos 864 Rocket 4.4 20:28:31 10° N 20:34:47 73° ENE 20:36:40 47° SSE
Abrixas rocket 4.4 20:32:01 10° W 20:32:54 17° WSW 20:32:54 17° WSW
Cosmos 1174 4.4 20:31:55 10° NNW 20:35:38 48° NE 20:35:46 48° NE
CARTOSAT-1 3.5 20:36:52 69° E 20:36:56 70° ENE 20:41:15 10° N
Cosmos 2058 3.0 20:34:07 10° N 20:37:54 65° NE 20:37:54 65° NE
STARLINK-1138 3.6 20:34:32 10° WNW 20:38:42 78° NNE 20:38:43 78° NNE
SPOT 5 2.5 20:39:20 69° ENE 20:39:23 69° ENE 20:43:42 10° N
SL-24 R/B - RUBIN 2 4.2 20:33:54 10° SSW 20:39:31 68° SE 20:45:51 10° NE
Cosmos 2366 rocket 3.8 20:34:29 10° N 20:40:41 82° E 20:42:31 48° SSE
STARLINK-1143 3.6 20:39:28 10° WNW 20:43:27 77° NNW 20:43:27 77° NNW
Cosmos 1190 Rocket 4.1 20:40:52 15° SSW 20:45:15 78° WNW 20:50:35 10° NNE
Spot 2 Rocket 4.3 20:46:22 31° SSW 20:48:25 46° W 20:53:22 10° NNW
STARLINK-1241 3.8 20:44:30 10° WNW 20:48:17 72° NW 20:48:17 72° NW
Cosmos 1943 4.4 20:43:38 10° WSW 20:49:00 43° NW 20:54:27 10° NNE
Cosmos 540 Rocket 4.5 20:44:28 10° NNW 20:49:08 33° NE 20:49:35 32° ENE
USA 234 3.1 20:42:59 10° ENE 20:49:34 81° SSE 20:56:07 10° WSW
Cosmos 1959 Rocket 4.5 20:45:17 10° N 20:51:39 84° W 20:53:38 47° S
Aureole 1 Rocket 4.5 20:44:47 10° SW 20:52:20 65° WNW 20:58:15 10° NNE
ATLAS 2AS CENTAUR R/B 3.7 20:46:22 10° NW 20:53:20 41° WSW 20:56:14 29° SSW
STARLINK-1239 3.9 20:49:29 10° WNW 20:53:04 65° WNW 20:53:04 65° WNW
Cosmos 1140 Rocket 3.5 20:51:23 29° SW 20:54:05 76° WNW 20:59:18 10° NNE
Iridium 4 Rocket 3.1 20:52:35 10° N 20:56:43 73° WNW 20:56:43 73° WNW
Cosmos 1570 Rocket 4.4 20:51:55 10° NNW 20:57:08 48° ENE 20:57:27 47° ENE
STARLINK-1240 4.1 20:54:28 10° WNW 20:57:51 58° WNW 20:57:51 58° WNW
Meteor 2-12 Rocket 4.3 20:52:31 10° N 20:58:42 87° E 20:59:54 60° SSE
Cosmos 1812 Rocket 3.8 21:00:32 60° NNE 21:00:32 60° NNE 21:04:09 10° NNE
RESURS DK-1 3.6 20:56:23 10° NNW 20:59:42 34° NNE 20:59:42 34° NNE
Cosmos 841 Rocket 4.1 20:56:25 10° NNW 21:01:29 43° ENE 21:01:39 43° ENE
BREEZE M DEB (TANK) 3.8 21:02:08 54° SSE 21:02:11 54° SE 21:15:56 10° ENE
STARLINK-1216 4.3 20:59:27 10° WNW 21:02:39 52° WNW 21:02:39 52° WNW
Cosmos 1697 Rocket 3.3 21:00:54 10° NNW 21:06:20 44° NE 21:06:58 42° ENE
Terra 1.8 21:07:36 84° NNW 21:07:36 84° NNW 21:12:14 10° NNW
STARLINK-1237 4.5 21:04:27 10° WNW 21:07:26 46° WNW 21:07:26 46° WNW
Cosmos 468 Rocket 3.8 21:04:20 10° NNW 21:09:33 89° WSW 21:09:34 89° SW
Cosmos 192 4.3 21:05:18 10° NNW 21:10:11 75° W 21:10:11 75° W
Cosmos 676 Rocket 4.1 21:12:05 57° SW 21:13:07 75° WNW 21:18:24 10° NNE
CZ-4C R/B 3.5 21:07:55 10° NW 21:14:20 47° NNE 21:17:32 31° E
Mayak 0.7 21:11:48 10° NNE 21:13:23 21° NE 21:13:23 21° NE
SL-16 R/B 4.3 21:12:13 10° NNW 21:15:59 18° NNE 21:18:42 13° ENE
SL-08 R/B 4.4 21:10:03 10° NNW 21:16:12 82° W 21:17:08 65° S
SPOT 1/Viking Rocket 4.5 21:17:02 36° SW 21:18:09 40° W 21:23:05 10° NNW
Meteor 2-10 Rocket 4.1 21:20:36 47° NE 21:20:36 47° NE 21:24:43 10° NNE
Cosmos 2239 Rocket 4.5 21:15:30 10° N 21:21:42 64° ENE 21:21:59 63° E
Cosmos 2344 4.5 21:13:48 10° NW 21:22:31 60° NNE 21:28:51 29° ESE
Cosmos 1821 Rocket 3.9 21:17:03 10° N 21:23:25 74° ENE 21:23:55 70° ESE
Cosmos 489 Rocket 4.3 21:20:15 10° NNW 21:26:31 83° ENE 21:26:55 77° ESE
Cosmos 2322 Rocket 4.3 21:23:38 10° NNW 21:27:24 18° NNE 21:30:00 13° ENE
ERS-1 Rocket 3.9 21:27:58 39° WSW 21:28:26 40° W 21:33:11 10° NNW
COSMOS 2455 3.8 21:25:22 10° NW 21:30:47 36° WSW 21:31:27 35° SW
Cosmos 2208 Rocket 4.2 21:26:25 10° NNW 21:31:05 66° NNE 21:31:05 66° NNE
Cosmos 1892 4.4 21:29:15 10° NNW 21:31:50 32° NW 21:31:50 32° NW
ASTEX 1 3.8 21:33:47 57° NNE 21:33:47 57° NNE 21:37:52 10° N
Cosmos 1980 Rocket 3.0 21:28:20 10° NNW 21:33:38 40° NE 21:33:52 40° NE
Cosmos 1455 4.3 21:37:02 23° N 21:37:02 23° N 21:38:36 10° N
Cosmos 1934 Rocket 4.1 21:29:25 10° N 21:35:38 58° ENE 21:35:38 58° ENE
ATLAS CENTAUR R/B 3.2 21:40:03 10° NNW 21:42:19 28° N 21:42:19 28° N
Cosmos 1656 3.9 21:45:15 10° NW 21:50:24 62° W 21:50:24 62° W
Cosmos 2151 4.5 21:48:33 10° NNW 21:51:14 34° NW 21:51:14 34° NW
Cosmos 2278 4.0 21:47:00 10° NNW 21:52:13 60° NNE 21:52:13 60° NNE
Cosmos 1825 4.3 21:50:16 10° NNW 21:52:04 25° NNW 21:52:04 25° NNW
Cosmos 2082 Rocket 4.0 22:02:46 20° ENE 22:02:46 20° ENE 22:04:50 10° NE
ATLAS 5 CENTAUR R/B 2.9 22:02:17 40° N 22:02:17 40° N 22:06:11 10° NE
COSMOS 2406 3.8 22:09:22 51° NE 22:09:22 51° NE 22:13:35 10° NNE
ALOS 2 4.2 22:09:35 31° NNE 22:09:35 31° NNE 22:12:05 10° N
Cosmos 1833 Rocket 3.7 22:21:36 37° NE 22:21:36 37° NE 22:25:01 10° NE
USA 234 3.7 22:26:04 10° ENE 22:32:28 60° NNW 22:38:53 10° W
Terra 4.3 22:46:29 13° WNW 22:46:29 13° WNW 22:48:17 10° NW
Cosmos 1697 Rocket 3.9 22:45:01 10° NW 22:48:42 33° WNW 22:48:42 33° WNW
Mayak 1.0 22:47:45 10° N 22:49:57 22° NW 22:49:57 22° NW
Cosmos 1727 Rocket 4.3 22:59:22 62° NE 22:59:22 62° NE 23:04:42 10° NNE
SL-16 R/B 2.9 22:55:48 10° NNW 23:00:32 50° NNE 23:00:32 50° NNE
Cosmos 1459 Rocket 4.3 22:55:37 10° N 23:01:18 61° NE 23:01:18 61° NE
CZ-4C R/B 2.9 22:56:24 10° NW 23:02:43 68° W 23:02:43 68° W
Cosmos 1802 Rocket 4.5 22:57:16 10° N 23:02:46 53° NE 23:02:46 53° NE
Cosmos 2360 Rocket 3.4 23:05:16 10° NNW 23:10:25 35° NE 23:10:45 34° NE
Cosmos 2333 Rocket 4.4 23:07:18 10° NNW 23:11:30 21° NE 23:15:07 12° ENE
Cosmos 2322 Rocket 2.9 23:07:10 10° NNW 23:11:48 50° NNE 23:11:48 50° NNE
Cosmos 2016 Rocket 4.5 23:06:39 10° N 23:12:26 54° NE 23:12:26 54° NE
Cosmos 2100 Rocket 4.2 23:07:35 10° N 23:12:54 66° N 23:12:54 66° N
Cosmos 1980 Rocket 3.5 23:12:25 10° NW 23:15:38 31° WNW 23:15:38 31° WNW
Cosmos 2173 Rocket 4.2 23:23:23 10° N 23:28:25 62° NNW 23:28:25 62° NNW
Resurs 1-4 Rocket 4.3 23:33:34 10° NE 23:36:00 15° ENE 23:36:00 15° ENE
Cosmos 2344 4.4 23:28:12 10° NW 23:37:32 60° WSW 23:38:50 57° SSW
Cosmos 2082 Rocket 2.9 23:44:35 49° NNW 23:44:35 49° NNW 23:49:19 10° NNE
ATLAS 5 CENTAUR R/B 4.1 23:43:41 11° WNW 23:47:12 23° N 23:51:24 10° NE
CZ-2D R/B 4.1 23:45:10 10° NE 23:48:41 19° E 23:48:41 19° E
